����������;��������(kWh)
2016-01-18 00:00;77,1
2016-01-18 00:15;76,2
2016-01-18 00:30;76,4
2016-01-18 00:45;74,9
2016-01-18 01:00;74,85
2016-01-18 01:15;79,7
2016-01-18 01:30;82,2
2016-01-18 01:45;74,1
2016-01-18 02:00;76,15
2016-01-18 02:15;75,6
2016-01-18 02:30;77,9
2016-01-18 02:45;75,45
2016-01-18 03:00;83,25
2016-01-18 03:15;84,05
2016-01-18 03:30;81,95
2016-01-18 03:45;84,4
2016-01-18 04:00;88,7
2016-01-18 04:15;85,95
2016-01-18 04:30;89,35
2016-01-18 04:45;92,6
2016-01-18 05:00;85
2016-01-18 05:15;76,4
2016-01-18 05:30;78,65
2016-01-18 05:45;77,25
2016-01-18 06:00;74,2
2016-01-18 06:15;83,9
2016-01-18 06:30;94,65
2016-01-18 06:45;98,9
2016-01-18 07:00;102,8
2016-01-18 07:15;123,5
2016-01-18 07:30;130,1
2016-01-18 07:45;141,75
2016-01-18 08:00;164,05
2016-01-18 08:15;161,5
2016-01-18 08:30;163,25
2016-01-18 08:45;180,2
2016-01-18 09:00;236,5
2016-01-18 09:15;261,75
2016-01-18 09:30;279,85
2016-01-18 09:45;289,4
2016-01-18 10:00;250,4
2016-01-18 10:15;248,5
2016-01-18 10:30;289,3
2016-01-18 10:45;324,7
2016-01-18 11:00;281,65
2016-01-18 11:15;273,1
2016-01-18 11:30;311,25
2016-01-18 11:45;328,2
2016-01-18 12:00;287
2016-01-18 12:15;288,65
2016-01-18 12:30;289,5
2016-01-18 12:45;314,25
2016-01-18 13:00;353,1
2016-01-18 13:15;318,95
2016-01-18 13:30;311,45
2016-01-18 13:45;296,7
2016-01-18 14:00;326,05
2016-01-18 14:15;300,15
2016-01-18 14:30;295,7
2016-01-18 14:45;303,7
2016-01-18 15:00;297,7
2016-01-18 15:15;275,8
2016-01-18 15:30;210,4
2016-01-18 15:45;99
2016-01-18 16:00;230,45
2016-01-18 16:15;218,7
2016-01-18 16:30;197,6
2016-01-18 16:45;195,9
2016-01-18 17:00;195,9
2016-01-18 17:15;139,4
2016-01-18 17:30;61,3
2016-01-18 17:45;189,7
2016-01-18 18:00;185,8
2016-01-18 18:15;173,45
2016-01-18 18:30;174,2
2016-01-18 18:45;174,5
2016-01-18 19:00;174,7
2016-01-18 19:15;176,65
2016-01-18 19:30;185,05
2016-01-18 19:45;180,4
2016-01-18 20:00;159,75
2016-01-18 20:15;162,25
2016-01-18 20:30;159,95
2016-01-18 20:45;149,35
2016-01-18 21:00;136,1
2016-01-18 21:15;133,3
2016-01-18 21:30;125,95
2016-01-18 21:45;114,25
2016-01-18 22:00;114,7
2016-01-18 22:15;113,8
2016-01-18 22:30;109,2
2016-01-18 22:45;110,75
2016-01-18 23:00;108,05
2016-01-18 23:15;113,95
2016-01-18 23:30;107,1
2016-01-18 23:45;102,2
2016-01-19 00:00;94,35
2016-01-19 00:15;94,75
2016-01-19 00:30;92,35
2016-01-19 00:45;92,5
2016-01-19 01:00;90,3
2016-01-19 01:15;99,65
2016-01-19 01:30;95,35
2016-01-19 01:45;88,8
2016-01-19 02:00;90,3
2016-01-19 02:15;91,6
2016-01-19 02:30;92,75
2016-01-19 02:45;91,7
2016-01-19 03:00;89
2016-01-19 03:15;93,15
2016-01-19 03:30;95,25
2016-01-19 03:45;89,05
2016-01-19 04:00;88,35
2016-01-19 04:15;86,65
2016-01-19 04:30;87,6
2016-01-19 04:45;87,55
2016-01-19 05:00;91,5
2016-01-19 05:15;90,9
2016-01-19 05:30;90,35
2016-01-19 05:45;84,85
2016-01-19 06:00;88,1
2016-01-19 06:15;88,45
2016-01-19 06:30;90,8
2016-01-19 06:45;103,85
2016-01-19 07:00;104,65
2016-01-19 07:15;112,95
2016-01-19 07:30;116,55
2016-01-19 07:45;119
2016-01-19 08:00;189,65
2016-01-19 08:15;186,05
2016-01-19 08:30;167,95
2016-01-19 08:45;183,15
2016-01-19 09:00;180,8
2016-01-19 09:15;191,5
2016-01-19 09:30;225,55
2016-01-19 09:45;248,45
2016-01-19 10:00;250,05
2016-01-19 10:15;262,5
2016-01-19 10:30;266,15
2016-01-19 10:45;266
2016-01-19 11:00;265,35
2016-01-19 11:15;286,85
2016-01-19 11:30;347,9
2016-01-19 11:45;343,1
2016-01-19 12:00;303,75
2016-01-19 12:15;323,75
2016-01-19 12:30;314,8
2016-01-19 12:45;306,8
2016-01-19 13:00;308,5
2016-01-19 13:15;302,95
2016-01-19 13:30;296,65
2016-01-19 13:45;289,25
2016-01-19 14:00;301,5
2016-01-19 14:15;331,75
2016-01-19 14:30;303,9
2016-01-19 14:45;279,9
2016-01-19 15:00;275,75
2016-01-19 15:15;276,3
2016-01-19 15:30;270,75
2016-01-19 15:45;251,5
2016-01-19 16:00;245,9
2016-01-19 16:15;227,4
2016-01-19 16:30;211
2016-01-19 16:45;214,1
2016-01-19 17:00;214,4
2016-01-19 17:15;207,45
2016-01-19 17:30;216,35
2016-01-19 17:45;210,85
2016-01-19 18:00;206,45
2016-01-19 18:15;200,55
2016-01-19 18:30;201,5
2016-01-19 18:45;201,2
2016-01-19 19:00;200,8
2016-01-19 19:15;190,25
2016-01-19 19:30;189,05
2016-01-19 19:45;190
2016-01-19 20:00;181,85
2016-01-19 20:15;176,3
2016-01-19 20:30;174
2016-01-19 20:45;171,05
2016-01-19 21:00;168,65
2016-01-19 21:15;160,15
2016-01-19 21:30;150,85
2016-01-19 21:45;141,2
2016-01-19 22:00;129,75
2016-01-19 22:15;125,75
2016-01-19 22:30;117,3
2016-01-19 22:45;111,85
2016-01-19 23:00;111,35
2016-01-19 23:15;111,6
2016-01-19 23:30;110,3
2016-01-19 23:45;109,45
2016-01-20 00:00;101,75
2016-01-20 00:15;100,25
2016-01-20 00:30;96,45
2016-01-20 00:45;97,75
2016-01-20 01:00;98
2016-01-20 01:15;96,8
2016-01-20 01:30;98,6
2016-01-20 01:45;97,65
2016-01-20 02:00;103,55
2016-01-20 02:15;103,25
2016-01-20 02:30;94,75
2016-01-20 02:45;97,45
2016-01-20 03:00;96,3
2016-01-20 03:15;96,5
2016-01-20 03:30;93,55
2016-01-20 03:45;99,4
2016-01-20 04:00;108,35
2016-01-20 04:15;106,4
2016-01-20 04:30;102,75
2016-01-20 04:45;112,45
2016-01-20 05:00;111,7
2016-01-20 05:15;100,65
2016-01-20 05:30;109,3
2016-01-20 05:45;105,45
2016-01-20 06:00;107,55
2016-01-20 06:15;109,3
2016-01-20 06:30;118,85
2016-01-20 06:45;119,55
2016-01-20 07:00;115,7
2016-01-20 07:15;118,9
2016-01-20 07:30;124,15
2016-01-20 07:45;134,3
2016-01-20 08:00;150,1
2016-01-20 08:15;158,35
2016-01-20 08:30;169,75
2016-01-20 08:45;198,95
2016-01-20 09:00;227,7
2016-01-20 09:15;275,1
2016-01-20 09:30;258,75
2016-01-20 09:45;263,6
2016-01-20 10:00;272,5
2016-01-20 10:15;285,05
2016-01-20 10:30;216,2
2016-01-20 10:45;260,6
2016-01-20 11:00;273
2016-01-20 11:15;317,65
2016-01-20 11:30;320,25
2016-01-20 11:45;257,05
2016-01-20 12:00;278,35
2016-01-20 12:15;279,35
2016-01-20 12:30;276
2016-01-20 12:45;284,35
2016-01-20 13:00;275,25
2016-01-20 13:15;261,5
2016-01-20 13:30;260,95
2016-01-20 13:45;290,3
2016-01-20 14:00;260,35
2016-01-20 14:15;273,1
2016-01-20 14:30;251,6
2016-01-20 14:45;240,4
2016-01-20 15:00;237
2016-01-20 15:15;222,5
2016-01-20 15:30;211,9
2016-01-20 15:45;204,8
2016-01-20 16:00;198,45
2016-01-20 16:15;194,35
2016-01-20 16:30;195,05
2016-01-20 16:45;196,3
2016-01-20 17:00;194,65
2016-01-20 17:15;189,7
2016-01-20 17:30;182,9
2016-01-20 17:45;185,9
2016-01-20 18:00;184,3
2016-01-20 18:15;195,3
2016-01-20 18:30;190,05
2016-01-20 18:45;187,95
2016-01-20 19:00;183,55
2016-01-20 19:15;175,2
2016-01-20 19:30;172,7
2016-01-20 19:45;169,95
2016-01-20 20:00;165,2
2016-01-20 20:15;161,3
2016-01-20 20:30;152,15
2016-01-20 20:45;150,6
2016-01-20 21:00;147,95
2016-01-20 21:15;144,9
2016-01-20 21:30;137,2
2016-01-20 21:45;129,7
2016-01-20 22:00;119,4
2016-01-20 22:15;112,45
2016-01-20 22:30;111,25
2016-01-20 22:45;108,45
2016-01-20 23:00;107,1
2016-01-20 23:15;97,05
2016-01-20 23:30;96,75
2016-01-20 23:45;94,6
2016-01-21 00:00;93,1
2016-01-21 00:15;92,4
2016-01-21 00:30;93,15
2016-01-21 00:45;92,05
2016-01-21 01:00;92,4
2016-01-21 01:15;92
2016-01-21 01:30;92,45
2016-01-21 01:45;92,05
2016-01-21 02:00;92,25
2016-01-21 02:15;91,7
2016-01-21 02:30;91,5
2016-01-21 02:45;89,65
2016-01-21 03:00;92,5
2016-01-21 03:15;91,55
2016-01-21 03:30;90,1
2016-01-21 03:45;90,9
2016-01-21 04:00;92,25
2016-01-21 04:15;91,25
2016-01-21 04:30;97,7
2016-01-21 04:45;100,5
2016-01-21 05:00;101,3
2016-01-21 05:15;96,4
2016-01-21 05:30;108,5
2016-01-21 05:45;102
2016-01-21 06:00;125
2016-01-21 06:15;139,5
2016-01-21 06:30;129,45
2016-01-21 06:45;121,25
2016-01-21 07:00;115,45
2016-01-21 07:15;124,45
2016-01-21 07:30;123,5
2016-01-21 07:45;131,5
2016-01-21 08:00;143,6
2016-01-21 08:15;152,85
2016-01-21 08:30;164,05
2016-01-21 08:45;212,15
2016-01-21 09:00;206,65
2016-01-21 09:15;218,65
2016-01-21 09:30;228
2016-01-21 09:45;235,8
2016-01-21 10:00;243,85
2016-01-21 10:15;251,55
2016-01-21 10:30;253,3
2016-01-21 10:45;236,6
2016-01-21 11:00;242,05
2016-01-21 11:15;281,6
2016-01-21 11:30;303,2
2016-01-21 11:45;252,3
2016-01-21 12:00;266,8
2016-01-21 12:15;262,2
2016-01-21 12:30;244,7
2016-01-21 12:45;241,55
2016-01-21 13:00;250,35
2016-01-21 13:15;253,9
2016-01-21 13:30;264,2
2016-01-21 13:45;273,4
2016-01-21 14:00;310,3
2016-01-21 14:15;255,3
2016-01-21 14:30;250,8
2016-01-21 14:45;243,9
2016-01-21 15:00;246
2016-01-21 15:15;234,3
2016-01-21 15:30;216,3
2016-01-21 15:45;220,5
2016-01-21 16:00;214,65
2016-01-21 16:15;213,05
2016-01-21 16:30;191,2
2016-01-21 16:45;191,55
2016-01-21 17:00;202,35
2016-01-21 17:15;194,3
2016-01-21 17:30;190,7
2016-01-21 17:45;190,1
2016-01-21 18:00;195,3
2016-01-21 18:15;199,55
2016-01-21 18:30;195,85
2016-01-21 18:45;189
2016-01-21 19:00;168,65
2016-01-21 19:15;155,95
2016-01-21 19:30;157,6
2016-01-21 19:45;156,4
2016-01-21 20:00;151,3
2016-01-21 20:15;143,8
2016-01-21 20:30;142,85
2016-01-21 20:45;139,2
2016-01-21 21:00;135,7
2016-01-21 21:15;123,3
2016-01-21 21:30;117,7
2016-01-21 21:45;115,4
2016-01-21 22:00;110,9
2016-01-21 22:15;109,05
2016-01-21 22:30;107,85
2016-01-21 22:45;104,7
2016-01-21 23:00;105,6
2016-01-21 23:15;101,25
2016-01-21 23:30;100,55
2016-01-21 23:45;98,2
2016-01-22 00:00;100,4
2016-01-22 00:15;99,45
2016-01-22 00:30;96,6
2016-01-22 00:45;95,7
2016-01-22 01:00;97,25
2016-01-22 01:15;95,45
2016-01-22 01:30;90,55
2016-01-22 01:45;89,95
2016-01-22 02:00;90,55
2016-01-22 02:15;89,8
2016-01-22 02:30;87,75
2016-01-22 02:45;85,75
2016-01-22 03:00;83,95
2016-01-22 03:15;87,3
2016-01-22 03:30;87,3
2016-01-22 03:45;85,5
2016-01-22 04:00;88,95
2016-01-22 04:15;82,1
2016-01-22 04:30;82,35
2016-01-22 04:45;84,4
2016-01-22 05:00;90,8
2016-01-22 05:15;88,05
2016-01-22 05:30;92,85
2016-01-22 05:45;87,35
2016-01-22 06:00;90,85
2016-01-22 06:15;91,5
2016-01-22 06:30;99,15
2016-01-22 06:45;98,15
2016-01-22 07:00;97,45
2016-01-22 07:15;103,95
2016-01-22 07:30;110,8
2016-01-22 07:45;119,4
2016-01-22 08:00;135,85
2016-01-22 08:15;139,05
2016-01-22 08:30;144,6
2016-01-22 08:45;155,3
2016-01-22 09:00;208,45
2016-01-22 09:15;189,4
2016-01-22 09:30;194,3
2016-01-22 09:45;192,95
2016-01-22 10:00;228,3
2016-01-22 10:15;244,05
2016-01-22 10:30;235,6
2016-01-22 10:45;233,55
2016-01-22 11:00;222,35
2016-01-22 11:15;215,15
2016-01-22 11:30;225
2016-01-22 11:45;237,05
2016-01-22 12:00;237,2
2016-01-22 12:15;239
2016-01-22 12:30;239,35
2016-01-22 12:45;253,35
2016-01-22 13:00;254,95
2016-01-22 13:15;250,1
2016-01-22 13:30;248,7
2016-01-22 13:45;247,75
2016-01-22 14:00;263,15
2016-01-22 14:15;282,8
2016-01-22 14:30;250,1
2016-01-22 14:45;279,95
2016-01-22 15:00;236,4
2016-01-22 15:15;229,6
2016-01-22 15:30;230,25
2016-01-22 15:45;225,5
2016-01-22 16:00;215,05
2016-01-22 16:15;203
2016-01-22 16:30;191
2016-01-22 16:45;193,75
2016-01-22 17:00;196,45
2016-01-22 17:15;192,4
2016-01-22 17:30;194,55
2016-01-22 17:45;193,55
2016-01-22 18:00;198,55
2016-01-22 18:15;201,05
2016-01-22 18:30;186,45
2016-01-22 18:45;182,15
2016-01-22 19:00;179,45
2016-01-22 19:15;162,05
2016-01-22 19:30;153,2
2016-01-22 19:45;151,5
2016-01-22 20:00;146,95
2016-01-22 20:15;142,7
2016-01-22 20:30;143,55
2016-01-22 20:45;136,55
2016-01-22 21:00;137
2016-01-22 21:15;128,7
2016-01-22 21:30;126,4
2016-01-22 21:45;116,65
2016-01-22 22:00;114,75
2016-01-22 22:15;109,3
2016-01-22 22:30;111,2
2016-01-22 22:45;105,7
2016-01-22 23:00;102,4
2016-01-22 23:15;99,35
2016-01-22 23:30;96,15
2016-01-22 23:45;96,1
2016-01-23 00:00;98,9
2016-01-23 00:15;103,5
2016-01-23 00:30;96,8
2016-01-23 00:45;96,3
2016-01-23 01:00;98,75
2016-01-23 01:15;96,6
2016-01-23 01:30;90,4
2016-01-23 01:45;84,1
2016-01-23 02:00;83,15
2016-01-23 02:15;82,3
2016-01-23 02:30;84,4
2016-01-23 02:45;82,3
2016-01-23 03:00;81,1
2016-01-23 03:15;81,8
2016-01-23 03:30;83,15
2016-01-23 03:45;82,5
2016-01-23 04:00;83,75
2016-01-23 04:15;81,35
2016-01-23 04:30;81,05
2016-01-23 04:45;83,7
2016-01-23 05:00;82,9
2016-01-23 05:15;79,8
2016-01-23 05:30;81,8
2016-01-23 05:45;76,35
2016-01-23 06:00;77,45
2016-01-23 06:15;81,75
2016-01-23 06:30;83,7
2016-01-23 06:45;82,85
2016-01-23 07:00;83,9
2016-01-23 07:15;82,1
2016-01-23 07:30;78,9
2016-01-23 07:45;78,5
2016-01-23 08:00;77,2
2016-01-23 08:15;77,6
2016-01-23 08:30;73,8
2016-01-23 08:45;75,75
2016-01-23 09:00;76,1
2016-01-23 09:15;76
2016-01-23 09:30;76,05
2016-01-23 09:45;80,15
2016-01-23 10:00;86,8
2016-01-23 10:15;88,35
2016-01-23 10:30;98,95
2016-01-23 10:45;110,2
2016-01-23 11:00;108,85
2016-01-23 11:15;96,1
2016-01-23 11:30;99,1
2016-01-23 11:45;102,55
2016-01-23 12:00;103
2016-01-23 12:15;108
2016-01-23 12:30;109,2
2016-01-23 12:45;111,45
2016-01-23 13:00;109,35
2016-01-23 13:15;105,6
2016-01-23 13:30;104,25
2016-01-23 13:45;102,4
2016-01-23 14:00;103,1
2016-01-23 14:15;111,2
2016-01-23 14:30;106,85
2016-01-23 14:45;98,55
2016-01-23 15:00;103,85
2016-01-23 15:15;104,15
2016-01-23 15:30;105,9
2016-01-23 15:45;104,9
2016-01-23 16:00;106,8
2016-01-23 16:15;103,75
2016-01-23 16:30;104,85
2016-01-23 16:45;107,7
2016-01-23 17:00;119
2016-01-23 17:15;117,7
2016-01-23 17:30;107,85
2016-01-23 17:45;111,65
2016-01-23 18:00;113,85
2016-01-23 18:15;110,55
2016-01-23 18:30;112,1
2016-01-23 18:45;110,75
2016-01-23 19:00;113,35
2016-01-23 19:15;109,05
2016-01-23 19:30;109
2016-01-23 19:45;109,7
2016-01-23 20:00;109,85
2016-01-23 20:15;109,85
2016-01-23 20:30;111,75
2016-01-23 20:45;118,6
2016-01-23 21:00;115,7
2016-01-23 21:15;101,85
2016-01-23 21:30;110,85
2016-01-23 21:45;104,5
2016-01-23 22:00;98,25
2016-01-23 22:15;93,15
2016-01-23 22:30;92,6
2016-01-23 22:45;90,4
2016-01-23 23:00;90
2016-01-23 23:15;89,4
2016-01-23 23:30;94,5
2016-01-23 23:45;93,7
2016-01-24 00:00;86,2
2016-01-24 00:15;83,5
2016-01-24 00:30;85,4
2016-01-24 00:45;85,85
2016-01-24 01:00;86,35
2016-01-24 01:15;85,7
2016-01-24 01:30;86,9
2016-01-24 01:45;86,2
2016-01-24 02:00;92,55
2016-01-24 02:15;88,45
2016-01-24 02:30;81
2016-01-24 02:45;82,05
2016-01-24 03:00;83,4
2016-01-24 03:15;81,95
2016-01-24 03:30;84,5
2016-01-24 03:45;83,05
2016-01-24 04:00;86,4
2016-01-24 04:15;92,05
2016-01-24 04:30;91,05
2016-01-24 04:45;86,85
2016-01-24 05:00;87,55
2016-01-24 05:15;83,6
2016-01-24 05:30;85,75
2016-01-24 05:45;84,5
2016-01-24 06:00;87,7
2016-01-24 06:15;88
2016-01-24 06:30;100,95
2016-01-24 06:45;99,8
2016-01-24 07:00;93,15
2016-01-24 07:15;87,5
2016-01-24 07:30;88,45
2016-01-24 07:45;91,15
2016-01-24 08:00;92,7
2016-01-24 08:15;86,65
2016-01-24 08:30;84,15
2016-01-24 08:45;81,9
2016-01-24 09:00;89,2
2016-01-24 09:15;85,2
2016-01-24 09:30;78,3
2016-01-24 09:45;78,7
2016-01-24 10:00;77,2
2016-01-24 10:15;88,55
2016-01-24 10:30;92,2
2016-01-24 10:45;97,85
2016-01-24 11:00;107,55
2016-01-24 11:15;94,3
2016-01-24 11:30;93,75
2016-01-24 11:45;92,3
2016-01-24 12:00;95,35
2016-01-24 12:15;97,3
2016-01-24 12:30;100,9
2016-01-24 12:45;101,1
2016-01-24 13:00;108,85
2016-01-24 13:15;108,8
2016-01-24 13:30;95,3
2016-01-24 13:45;94,15
2016-01-24 14:00;97,7
2016-01-24 14:15;101,35
2016-01-24 14:30;102,45
2016-01-24 14:45;99,65
2016-01-24 15:00;102,1
2016-01-24 15:15;102,05
2016-01-24 15:30;100
2016-01-24 15:45;103,95
2016-01-24 16:00;104,35
2016-01-24 16:15;101,45
2016-01-24 16:30;101,7
2016-01-24 16:45;106,35
2016-01-24 17:00;112,95
2016-01-24 17:15;107,8
2016-01-24 17:30;111
2016-01-24 17:45;111,75
2016-01-24 18:00;109,35
2016-01-24 18:15;112,2
2016-01-24 18:30;112,75
2016-01-24 18:45;111,15
2016-01-24 19:00;120
2016-01-24 19:15;113,4
2016-01-24 19:30;108,8
2016-01-24 19:45;110,2
2016-01-24 20:00;111,7
2016-01-24 20:15;113,8
2016-01-24 20:30;118,6
2016-01-24 20:45;123,25
2016-01-24 21:00;124,15
2016-01-24 21:15;121,8
2016-01-24 21:30;112,2
2016-01-24 21:45;113,85
2016-01-24 22:00;109,05
2016-01-24 22:15;104,8
2016-01-24 22:30;101,25
2016-01-24 22:45;104
2016-01-24 23:00;102,65
2016-01-24 23:15;101,6
2016-01-24 23:30;99,8
2016-01-24 23:45;93,35

